Location: Hamburg
(53.5554°N, 9.9941°E)
Time: 03:14:48
(UTC+02:00)

ISS - Pass Details

Date: 17 May 2021
Orbit: 417 x 422 km, 51.6° (Epoch: 15 June)

Event Time Altitude Azimuth Distance (km) Brightness Sun altitude
Rises 02:03:37 0° 276° (W) 2,372 0.0 -16.4°
Reaches altitude 10° 02:05:45 10° 270° (W) 1,507 -1.1 -16.3°
Maximum altitude 02:09:01 46° 196° (SSW) 579 -3.5 -16.2°
Drops below altitude 10° 02:12:16 10° 122° (ESE) 1,506 -1.1 -16.1°
Sets 02:14:25 0° 117° (ESE) 2,370 -0.1 -16.0°
